Date String (YYYY-MM-DD hh:mm:ss) UTC,Instrument flags,absolute air pressure of the measurement (hPa),sample flow rate (lpm),inlet stack bypass flow (lpm),air temperature of the measurement (°C),ambient temperature measured by the external sensor (°C),aerosol sample conditioner tube jacket temperature (°C),OPC LED temperature (°C),internal box temperature (°C),relative humidity of the measurement (%),span deviation,mass concentration of particles derived from Lorenz-Mie calculation of OPC scattering (μg/m³),mass concentration of particles derived from Lorenz-Mie calculation of OPC scattering (μg/m³),mass concentration of particles derived from Lorenz-Mie calculation of OPC scattering (μg/m³)
DateTimeUTC,F1_M11,P_M11,Q1_M11,Q2_M11,T1_M11,T2_M11,T3_M11,T4_M11,T5_M11,U1_M11,ZSPAN_M11,X0_M11,X2_M11,X1_M11
2024-04-21 14:00:00,SystemResetWarning,0836.8,4.99,000.00,018.7,018.2,000.0,027.1,020.4,024.2,0000.2,0018.25,0011.44,0011.06
2024-04-21 14:01:00,SystemResetWarning,0836.8,5.00,000.00,018.7,018.2,000.0,027.1,020.4,024.2,0000.4,0018.51,0011.56,0011.18
2024-04-21 14:02:00,SystemResetWarning,0836.7,5.00,000.00,018.7,018.2,000.0,027.1,020.4,024.0,0000.4,0018.63,0011.58,0011.21
2024-04-21 14:03:00,SystemResetWarning,0836.7,5.00,000.00,018.7,018.3,000.0,027.1,020.4,024.0,0000.5,0018.19,0011.61,0011.24
2024-04-21 14:04:00,SystemResetWarning,0836.7,5.00,000.00,018.7,018.3,000.0,027.1,020.4,024.1,0000.6,0018.20,0011.62,0011.28
2024-04-21 14:05:00,SystemResetWarning,0836.8,4.99,000.00,018.7,018.3,000.0,027.1,020.4,024.1,0000.7,0018.01,0011.71,0011.36
2024-04-21 14:06:00,SystemResetWarning,0836.8,5.00,000.00,018.7,018.3,000.0,027.1,020.5,024.2,0000.8,0018.12,0011.81,0011.47
2024-04-21 14:07:00,SystemResetWarning,0836.7,5.00,000.00,018.7,018.3,000.0,027.1,020.5,024.4,0000.7,0017.81,0011.88,0011.54
2024-04-21 14:08:00,SystemResetWarning,0836.7,5.00,000.00,018.7,018.3,000.0,027.1,020.5,024.5,0000.6,0017.44,0011.92,0011.60
2024-04-21 14:09:00,SystemResetWarning,0836.7,5.00,000.00,018.7,018.3,000.0,027.1,020.5,024.3,0000.6,0017.60,0011.98,0011.66
2024-04-21 14:10:00,SystemResetWarning,0836.7,5.00,000.00,018.7,018.3,000.0,027.1,020.5,024.3,0000.7,0017.90,0012.06,0011.73
2024-04-21 14:11:00,SystemResetWarning,0836.7,5.00,000.00,018.7,018.3,000.0,027.1,020.5,024.3,0000.7,0018.08,0012.15,0011.78
2024-04-21 14:12:00,SystemResetWarning,0836.7,5.00,000.00,018.7,018.3,000.0,027.1,020.5,024.3,0000.7,0017.97,0012.16,0011.80
2024-04-21 14:13:00,SystemResetWarning,0836.7,5.00,000.00,018.7,018.3,000.0,027.1,020.5,024.5,0000.5,0017.79,0012.18,0011.84
2024-04-21 14:14:00,SystemResetWarning,0836.7,5.00,000.00,018.8,018.3,000.0,027.1,020.5,024.3,0000.4,0017.52,0012.22,0011.90
2024-04-21 14:15:00,SystemResetWarning,0836.7,5.01,000.00,018.8,018.4,000.0,027.1,020.5,024.2,0000.2,0017.21,0012.28,0011.95
2024-04-21 14:16:00,SystemResetWarning,0836.7,5.00,000.00,018.8,018.4,000.0,027.2,020.5,024.1,0000.4,0017.27,0012.35,0012.02
2024-04-21 14:17:00,SystemResetWarning,0836.7,5.00,000.00,018.8,018.4,000.0,027.2,020.5,024.1,0000.4,0017.38,0012.44,0012.09
2024-04-21 14:18:00,SystemResetWarning,0836.7,5.00,000.00,018.8,018.4,000.0,027.2,020.5,024.1,0000.3,0017.55,0012.54,0012.18
2024-04-21 14:19:00,SystemResetWarning,0836.7,5.00,000.00,018.8,018.4,000.0,027.2,020.5,024.1,0000.3,0017.67,0012.63,0012.25
2024-04-21 14:20:00,SystemResetWarning,0836.7,4.99,000.00,018.8,018.4,000.0,027.2,020.6,023.9,0000.4,0017.56,0012.70,0012.34
2024-04-21 14:21:00,SystemResetWarning,0836.8,5.00,000.00,018.8,018.4,000.0,027.2,020.6,023.9,0000.4,0017.42,0012.78,0012.43
2024-04-21 14:22:00,SystemResetWarning,0836.8,5.00,000.00,018.8,018.4,000.0,027.2,020.6,024.0,0000.4,0017.68,0012.83,0012.51
2024-04-21 14:23:00,SystemResetWarning,0836.8,5.00,000.00,018.8,018.4,000.0,027.2,020.5,023.9,0000.4,0018.28,0012.91,0012.60
2024-04-21 14:24:00,SystemResetWarning,0836.8,5.00,000.00,018.8,018.4,000.0,027.2,020.5,024.0,0000.4,0018.73,0012.99,0012.68
2024-04-21 14:25:00,SystemResetWarning,0836.7,5.00,000.00,018.8,018.4,000.0,027.2,020.5,024.1,0000.3,0018.85,0013.07,0012.74
2024-04-21 14:26:00,SystemResetWarning,0836.8,5.00,000.00,018.8,018.4,000.0,027.2,020.5,024.1,0000.6,0018.87,0013.11,0012.79
2024-04-21 14:27:00,SystemResetWarning,0836.8,5.00,000.00,018.8,018.4,000.0,027.2,020.5,024.0,0000.5,0018.91,0013.14,0012.83
2024-04-21 14:28:00,SystemResetWarning,0836.8,5.00,000.00,018.8,018.4,000.0,027.2,020.5,023.9,0000.5,0019.01,0013.18,0012.85
2024-04-21 14:29:00,SystemResetWarning,0836.8,5.00,000.00,018.8,018.3,000.0,027.2,020.5,023.9,0000.5,0019.12,0013.25,0012.90
2024-04-21 14:30:00,SystemResetWarning,0836.7,5.00,000.00,018.8,018.3,000.0,027.2,020.5,024.0,0000.5,0019.20,0013.30,0012.96
2024-04-21 14:31:00,SystemResetWarning,0836.7,5.01,000.00,018.8,018.3,000.0,027.2,020.5,024.0,0000.3,0019.24,0013.32,0012.97
2024-04-21 14:32:00,SystemResetWarning,0836.7,5.00,000.00,018.8,018.3,000.0,027.2,020.5,024.0,0000.2,0019.16,0013.28,0012.93
2024-04-21 14:33:00,SystemResetWarning,0836.7,5.01,000.00,018.8,018.3,000.0,027.2,020.5,024.1,0000.1,0018.90,0013.27,0012.93
2024-04-21 14:34:00,SystemResetWarning,0836.7,5.00,000.00,018.8,018.3,000.0,027.2,020.5,024.2,0000.0,0018.43,0013.27,0012.92
2024-04-21 14:35:00,SystemResetWarning,0836.7,5.00,000.00,018.8,018.3,000.0,027.2,020.5,024.0,-000.1,0018.12,0013.26,0012.89
2024-04-21 14:36:00,SystemResetWarning,0836.7,4.99,000.00,018.8,018.3,000.0,027.2,020.5,024.0,0000.2,0018.12,0013.26,0012.89
2024-04-21 14:37:00,SystemResetWarning,0836.7,5.00,000.00,018.8,018.3,000.0,027.2,020.5,024.1,0000.2,0018.12,0013.27,0012.90
2024-04-21 14:38:00,SystemResetWarning,0836.7,5.00,000.00,018.8,018.3,000.0,027.2,020.5,024.1,0000.1,0018.30,0013.31,0012.92
2024-04-21 14:39:00,SystemResetWarning,0836.7,5.00,000.00,018.8,018.3,000.0,027.2,020.5,024.1,0000.0,0018.27,0013.29,0012.93
2024-04-21 14:40:00,SystemResetWarning,0836.7,5.00,000.00,018.8,018.3,000.0,027.2,020.5,024.2,0000.0,0018.18,0013.24,0012.90
2024-04-21 14:41:00,SystemResetWarning,0836.7,5.00,000.00,018.8,018.3,000.0,027.2,020.6,024.1,0000.1,0018.13,0013.22,0012.87
2024-04-21 14:42:00,SystemResetWarning,0836.7,5.00,000.00,018.8,018.3,000.0,027.2,020.5,024.1,0000.4,0018.11,0013.20,0012.86
2024-04-21 14:43:00,SystemResetWarning,0836.6,5.01,000.00,018.8,018.3,000.0,027.2,020.6,024.2,0000.5,0018.24,0013.23,0012.87
2024-04-21 14:44:00,SystemResetWarning,0836.7,5.01,000.00,018.8,018.4,000.0,027.2,020.6,024.2,0000.5,0018.36,0013.28,0012.88
2024-04-21 14:45:00,SystemResetWarning,0836.6,4.99,000.00,018.8,018.4,000.0,027.2,020.6,024.4,0000.4,0018.84,0013.25,0012.85
2024-04-21 14:46:00,SystemResetWarning,0836.7,5.00,000.00,018.8,018.4,000.0,027.2,020.6,024.7,0000.5,0019.19,0013.23,0012.84
2024-04-21 14:47:00,SystemResetWarning,0836.7,5.00,000.00,018.8,018.4,000.0,027.2,020.6,024.8,0000.3,0019.08,0013.20,0012.83
2024-04-21 14:48:00,SystemResetWarning,0836.7,5.00,000.00,018.8,018.4,000.0,027.3,020.6,024.8,0000.1,0019.09,0013.16,0012.79
2024-04-21 14:49:00,SystemResetWarning,0836.6,5.02,000.00,018.8,018.4,000.0,027.3,020.6,024.7,0000.0,0019.01,0013.12,0012.74
2024-04-21 14:50:00,SystemResetWarning,0836.6,5.00,000.00,018.8,018.4,000.0,027.3,020.6,024.5,-000.0,0019.03,0013.13,0012.71
2024-04-21 14:51:00,SystemResetWarning,0836.6,5.00,000.00,018.8,018.4,000.0,027.3,020.6,024.4,-000.1,0019.06,0013.13,0012.71
2024-04-21 14:52:00,SystemResetWarning,0836.6,4.99,000.00,018.8,018.3,000.0,027.3,020.6,024.4,-000.1,0019.20,0013.14,0012.70
2024-04-21 14:53:00,SystemResetWarning,0836.6,5.00,000.00,018.8,018.3,000.0,027.3,020.6,024.3,-000.1,0019.26,0013.15,0012.68
2024-04-21 14:54:00,SystemResetWarning,0836.7,5.01,000.00,018.8,018.3,000.0,027.3,020.6,024.4,-000.0,0019.32,0013.14,0012.69
2024-04-21 14:55:00,SystemResetWarning,0836.7,5.01,000.00,018.8,018.4,000.0,027.3,020.6,024.5,-000.1,0019.33,0013.10,0012.66
2024-04-21 14:56:00,SystemResetWarning,0836.6,4.99,000.00,018.8,018.4,000.0,027.3,020.6,024.3,-000.0,0018.94,0013.08,0012.64
2024-04-21 14:57:00,SystemResetWarning,0836.6,4.99,000.00,018.8,018.4,000.0,027.3,020.6,024.2,0000.1,0018.40,0013.09,0012.65
2024-04-21 14:58:00,SystemResetWarning,0836.7,5.00,000.00,018.8,018.4,000.0,027.3,020.6,024.3,0000.1,0018.40,0013.08,0012.64
2024-04-21 14:59:00,SystemResetWarning,0836.6,5.00,000.00,018.8,018.4,000.0,027.3,020.6,024.4,0000.3,0018.38,0013.08,0012.64
